| time (UTC) | temp F | wind direction | speed knots | gust knots | rain 1hr in | rain 24hr in | rain mn in | humidity % | barometer mb |
| 20260504081905 | 48 | 208 | 0.9 | 7.0 | 0.00 | 0.00 | 0.00 | 77 | 1007.5 |
| 20260504081541 | 48 | 209 | 1.7 | 7.8 | 0.00 | 0.00 | 0.00 | 76 | 1007.6 |
| 20260504081405 | 49 | 203 | 3.5 | 7.0 | 0.00 | 0.00 | 0.00 | 76 | 1007.5 |
| 20260504081022 | 48 | 206 | 4.3 | 7.8 | 0.00 | 0.00 | 0.00 | 75 | 1007.6 |
| 20260504080904 | 49 | 207 | 3.5 | 7.0 | 0.00 | 0.00 | 0.00 | 75 | 1007.6 |
| 20260504080522 | 48 | 184 | 4.3 | 7.8 | 0.00 | 0.00 | 0.00 | 74 | 1007.7 |
| 20260504080405 | 49 | 180 | 2.6 | 6.1 | 0.00 | 0.00 | 0.00 | 74 | 1007.6 |
| 20260504070357 | 49 | 171 | 10.4 | 14.8 | 0.00 | 0.00 | 0.00 | 69 | 1007.6 |
| 20260504050522 | 49 | 166 | 7.0 | 10.4 | 0.00 | 0.00 | 0.00 | 62 | 1008.3 |
| 20260504050343 | 49 | 181 | 6.1 | 10.4 | 0.00 | 0.00 | 0.00 | 63 | 1008.0 |
| 20260504045840 | 49 | 191 | 7.8 | 10.4 | 0.00 | 0.00 | 0.00 | 61 | 1008.0 |
| 20260504045521 | 49 | 176 | 7.8 | 11.3 | 0.00 | 0.00 | 0.00 | 60 | 1008.2 |
| 20260504045339 | 49 | 168 | 7.0 | 11.3 | 0.00 | 0.00 | 0.00 | 61 | 1008.0 |
| 20260504045023 | 49 | 172 | 7.0 | 12.2 | 0.00 | 0.00 | 0.00 | 58 | 1008.2 |
| 20260504044836 | 50 | 191 | 7.8 | 11.3 | 0.00 | 0.00 | 0.00 | 59 | 1008.1 |
| 20260504044536 | 49 | 177 | 8.7 | 12.2 | 0.00 | 0.00 | 0.00 | 57 | 1008.4 |
| 20260504044338 | 49 | 181 | 8.7 | 11.3 | 0.00 | 0.00 | 0.00 | 58 | 1008.2 |
| 20260504044023 | 49 | 176 | 6.1 | 10.4 | 0.00 | 0.00 | 0.00 | 57 | 1008.4 |
| 20260504043852 | 49 | 187 | 6.1 | 9.6 | 0.00 | 0.00 | 0.00 | 56 | 1008.3 |
| 20260504043523 | 49 | 191 | 7.0 | 9.6 | 0.00 | 0.00 | 0.00 | 56 | 1008.3 |
| 20260504043335 | 50 | 193 | 7.0 | 9.6 | 0.00 | 0.00 | 0.00 | 57 | 1008.2 |
| 20260504043035 | 49 | 184 | 6.1 | 10.4 | 0.00 | 0.00 | 0.00 | 56 | 1008.3 |
| 20260504042835 | 50 | 197 | 7.0 | 9.6 | 0.00 | 0.00 | 0.00 | 57 | 1008.1 |
| 20260504042523 | 49 | 183 | 6.1 | 10.4 | 0.00 | 0.00 | 0.00 | 55 | 1008.3 |
| 20260504042334 | 49 | 176 | 7.8 | 9.6 | 0.00 | 0.00 | 0.00 | 54 | 1008.2 |
| 20260504042023 | 49 | 203 | 6.1 | 9.6 | 0.00 | 0.00 | 0.00 | 53 | 1008.3 |
| 20260504041833 | 50 | 222 | 7.0 | 9.6 | 0.00 | 0.00 | 0.00 | 54 | 1008.2 |
| 20260504041544 | 49 | 204 | 6.1 | 13.9 | 0.00 | 0.00 | 0.00 | 53 | 1008.3 |
| 20260504041333 | 50 | 211 | 6.1 | 12.2 | 0.00 | 0.00 | 0.00 | 52 | 1008.3 |
| 20260504041023 | 49 | 251 | 6.1 | 13.9 | 0.00 | 0.00 | 0.00 | 51 | 1008.3 |
| 20260504040522 | 49 | 295 | 7.0 | 13.0 | 0.00 | 0.00 | 0.00 | 50 | 1008.3 |
| 20260504040332 | 50 | 239 | 6.1 | 11.3 | 0.00 | 0.00 | 0.00 | 51 | 1008.2 |
| 20260504040042 | 49 | 242 | 6.1 | 11.3 | 0.00 | 0.00 | 0.00 | 51 | 1008.2 |
| 20260504035832 | 50 | 287 | 5.2 | 11.3 | 0.00 | 0.00 | 0.00 | 50 | 1008.2 |
| 20260504035522 | 49 | 275 | 5.2 | 13.0 | 0.00 | 0.00 | 0.00 | 49 | 1008.3 |
| 20260504035329 | 50 | 263 | 6.1 | 12.2 | 0.00 | 0.00 | 0.00 | 49 | 1008.2 |
| 20260504035023 | 50 | 245 | 4.3 | 13.9 | 0.00 | 0.00 | 0.00 | 48 | 1008.4 |
| 20260504034829 | 50 | 247 | 6.1 | 13.0 | 0.00 | 0.00 | 0.00 | 50 | 1008.2 |
| 20260504034545 | 50 | 204 | 7.0 | 13.9 | 0.00 | 0.00 | 0.00 | 48 | 1008.5 |
| 20260504034330 | 50 | 248 | 7.8 | 13.0 | 0.00 | 0.00 | 0.00 | 49 | 1008.4 |
| 20260504034022 | 50 | 249 | 5.2 | 10.4 | 0.00 | 0.00 | 0.00 | 48 | 1008.6 |
| 20260504033842 | 50 | 239 | 7.0 | 10.4 | 0.00 | 0.00 | 0.00 | 48 | 1008.5 |
| 20260504033525 | 50 | 247 | 6.1 | 12.2 | 0.00 | 0.00 | 0.00 | 47 | 1008.6 |
| 20260504033329 | 50 | 237 | 6.1 | 12.2 | 0.00 | 0.00 | 0.00 | 48 | 1008.4 |
| 20260504033036 | 49 | 241 | 7.8 | 15.6 | 0.00 | 0.00 | 0.00 | 47 | 1008.5 |
| 20260504032829 | 50 | 225 | 7.8 | 15.6 | 0.00 | 0.00 | 0.00 | 49 | 1008.3 |
| 20260504032525 | 49 | 254 | 8.7 | 15.6 | 0.00 | 0.00 | 0.00 | 48 | 1008.4 |
| 20260504032024 | 49 | 249 | 8.7 | 15.6 | 0.00 | 0.00 | 0.00 | 49 | 1008.3 |
| 20260504031536 | 48 | 218 | 9.6 | 15.6 | 0.00 | 0.00 | 0.00 | 50 | 1008.4 |
| 20260504031022 | 46 | 239 | 5.2 | 11.3 | 0.00 | 0.00 | 0.00 | 52 | 1008.3 |
| 20260504030830 | 47 | 258 | 5.2 | 7.8 | 0.00 | 0.00 | 0.00 | 52 | 1008.3 |
| 20260504030522 | 46 | 249 | 4.3 | 7.8 | 0.00 | 0.00 | 0.00 | 52 | 1008.4 |
| 20260504030330 | 47 | 234 | 4.3 | 7.0 | 0.00 | 0.00 | 0.00 | 53 | 1008.2 |
| 20260504030041 | 46 | 251 | 3.5 | 7.0 | 0.00 | 0.00 | 0.00 | 52 | 1008.4 |
| 20260504025829 | 46 | 256 | 4.3 | 7.0 | 0.00 | 0.00 | 0.00 | 53 | 1008.2 |
| 20260504025523 | 46 | 228 | 3.5 | 7.0 | 0.00 | 0.00 | 0.00 | 52 | 1008.3 |
| 20260504025330 | 46 | 251 | 2.6 | 5.2 | 0.00 | 0.00 | 0.00 | 54 | 1008.2 |
| 20260504025023 | 46 | 275 | 3.5 | 6.1 | 0.00 | 0.00 | 0.00 | 54 | 1008.2 |
| 20260504024829 | 46 | 239 | 3.5 | 6.1 | 0.00 | 0.00 | 0.00 | 53 | 1008.3 |
| 20260504024537 | 45 | 255 | 3.5 | 7.0 | 0.00 | 0.00 | 0.00 | 53 | 1008.3 |
| 20260504024329 | 45 | 256 | 4.3 | 7.0 | 0.00 | 0.00 | 0.00 | 53 | 1008.2 |
| 20260504024022 | 45 | 249 | 3.5 | 7.8 | 0.00 | 0.00 | 0.00 | 53 | 1008.3 |
| 20260504023522 | 44 | 261 | 3.5 | 7.8 | 0.00 | 0.00 | 0.00 | 55 | 1008.3 |
| 20260504023329 | 44 | 259 | 3.5 | 7.8 | 0.00 | 0.00 | 0.00 | 56 | 1008.1 |
| 20260504023034 | 43 | 278 | 3.5 | 7.8 | 0.00 | 0.00 | 0.00 | 57 | 1008.4 |
| 20260504022828 | 44 | 275 | 3.5 | 5.2 | 0.00 | 0.00 | 0.00 | 58 | 1008.3 |
| 20260504022522 | 43 | 255 | 2.6 | 5.2 | 0.00 | 0.00 | 0.00 | 58 | 1008.5 |
| 20260504022329 | 43 | 264 | 3.5 | 4.3 | 0.00 | 0.00 | 0.00 | 60 | 1008.4 |
| 20260504022022 | 43 | 253 | 1.7 | 3.5 | 0.00 | 0.00 | 0.00 | 59 | 1008.5 |
| 20260504021540 | 42 | 273 | 2.6 | 3.5 | 0.00 | 0.00 | 0.00 | 58 | 1008.6 |
| 20260504021331 | 42 | 266 | 2.6 | 3.5 | 0.00 | 0.00 | 0.00 | 60 | 1008.4 |
| 20260504021034 | 42 | 270 | 1.7 | 5.2 | 0.00 | 0.00 | 0.00 | 61 | 1008.6 |
| 20260504020831 | 42 | 270 | 2.6 | 5.2 | 0.00 | 0.00 | 0.00 | 62 | 1008.4 |
| 20260504020522 | 42 | 278 | 1.7 | 5.2 | 0.00 | 0.00 | 0.00 | 62 | 1008.6 |
| 20260504020332 | 42 | 272 | 2.6 | 5.2 | 0.00 | 0.00 | 0.00 | 62 | 1008.4 |
| 20260504020041 | 42 | 292 | 2.6 | 5.2 | 0.00 | 0.00 | 0.00 | 62 | 1008.6 |
| 20260504015523 | 42 | 273 | 1.7 | 3.5 | 0.00 | 0.00 | 0.00 | 62 | 1008.6 |
| 20260504015330 | 42 | 282 | 2.6 | 3.5 | 0.00 | 0.00 | 0.00 | 62 | 1008.5 |
| 20260504015022 | 42 | 285 | 1.7 | 3.5 | 0.00 | 0.00 | 0.00 | 62 | 1008.6 |
| 20260504014830 | 42 | 289 | 1.7 | 3.5 | 0.00 | 0.00 | 0.00 | 61 | 1008.5 |
| 20260504014538 | 42 | 299 | 0.9 | 3.5 | 0.00 | 0.00 | 0.00 | 61 | 1008.7 |
| 20260504014330 | 43 | 295 | 1.7 | 3.5 | 0.00 | 0.00 | 0.00 | 59 | 1008.6 |
| 20260504014021 | 43 | 297 | 1.7 | 3.5 | 0.00 | 0.00 | 0.00 | 59 | 1008.7 |
| 20260504013829 | 43 | 289 | 1.7 | 3.5 | 0.00 | 0.00 | 0.00 | 60 | 1008.6 |
| 20260504013521 | 43 | 289 | 0.9 | 3.5 | 0.00 | 0.00 | 0.00 | 58 | 1008.7 |
| 20260504013330 | 44 | 295 | 0.9 | 3.5 | 0.00 | 0.00 | 0.00 | 58 | 1008.5 |
| 20260504013049 | 43 | 309 | 1.7 | 6.1 | 0.00 | 0.00 | 0.00 | 57 | 1008.7 |
| 20260504012829 | 44 | 285 | 1.7 | 5.2 | 0.00 | 0.00 | 0.00 | 57 | 1008.6 |
| 20260504012522 | 43 | 265 | 2.6 | 6.1 | 0.00 | 0.00 | 0.00 | 56 | 1008.7 |
| 20260504012329 | 44 | 276 | 2.6 | 5.2 | 0.00 | 0.02 | 0.00 | 57 | 1008.5 |
| 20260504012023 | 43 | 280 | 2.6 | 6.1 | 0.00 | 0.00 | 0.00 | 57 | 1008.6 |
| 20260504011830 | 43 | 287 | 1.7 | 5.2 | 0.00 | 0.02 | 0.00 | 60 | 1008.3 |
| 20260504011535 | 43 | 272 | 1.7 | 5.2 | 0.00 | 0.00 | 0.00 | 58 | 1008.4 |
| 20260504011329 | 44 | 268 | 2.6 | 5.2 | 0.00 | 0.02 | 0.00 | 58 | 1008.2 |
| 20260504011022 | 42 | 264 | 2.6 | 5.2 | 0.00 | 0.00 | 0.00 | 59 | 1008.4 |
| 20260504010828 | 43 | 274 | 2.6 | 3.5 | 0.00 | 0.02 | 0.00 | 62 | 1008.2 |
| 20260504010522 | 42 | 286 | 0.9 | 2.6 | 0.00 | 0.00 | 0.00 | 63 | 1008.5 |
| 20260504010329 | 43 | 297 | 1.7 | 2.6 | 0.00 | 0.02 | 0.00 | 63 | 1008.4 |
| 20260504010042 | 43 | 256 | 0.9 | 2.6 | 0.00 | 0.00 | 0.00 | 59 | 1008.5 |
| 20260504005829 | 43 | 245 | 1.7 | 2.6 | 0.00 | 0.02 | 0.00 | 59 | 1008.4 |
| 20260504005522 | 43 | 258 | 0.9 | 2.6 | 0.00 | 0.00 | 0.00 | 60 | 1008.4 |
| 20260504005329 | 43 | 258 | 1.7 | 2.6 | 0.00 | 0.02 | 0.00 | 61 | 1008.4 |
| 20260504005022 | 43 | 295 | 0.9 | 2.6 | 0.00 | 0.00 | 0.00 | 60 | 1008.5 |
| 20260504004831 | 44 | 293 | 1.7 | 2.6 | 0.00 | 0.02 | 0.00 | 60 | 1008.4 |
| 20260504004534 | 44 | 289 | 0.9 | 3.5 | 0.00 | 0.00 | 0.00 | 59 | 1008.3 |
| 20260504004022 | 44 | 286 | 0.9 | 3.5 | 0.00 | 0.00 | 0.00 | 58 | 1008.4 |
| 20260504003833 | 44 | 298 | 1.7 | 3.5 | 0.00 | 0.02 | 0.00 | 59 | 1008.3 |
| 20260504003523 | 44 | 275 | 1.7 | 3.5 | 0.00 | 0.00 | 0.00 | 57 | 1008.3 |
| 20260504003333 | 45 | 247 | 2.6 | 3.5 | 0.00 | 0.02 | 0.00 | 57 | 1008.2 |
| 20260504003035 | 45 | 270 | 1.7 | 3.5 | 0.00 | 0.00 | 0.00 | 55 | 1008.3 |
| 20260504002830 | 45 | 270 | 1.7 | 3.5 | 0.00 | 0.02 | 0.00 | 56 | 1008.2 |
| 20260504002522 | 45 | 270 | 1.7 | 3.5 | 0.00 | 0.00 | 0.00 | 55 | 1008.2 |
| 20260504002022 | 46 | 287 | 1.7 | 3.5 | 0.00 | 0.00 | 0.00 | 54 | 1008.3 |
| 20260504001829 | 47 | 287 | 1.7 | 2.6 | 0.00 | 0.02 | 0.00 | 54 | 1008.0 |
| 20260504001538 | 47 | 287 | 1.7 | 2.6 | 0.00 | 0.00 | 0.00 | 50 | 1008.1 |
| 20260504001329 | 47 | 291 | 1.7 | 2.6 | 0.00 | 0.02 | 0.00 | 50 | 1008.0 |
| 20260504001022 | 47 | 295 | 0.9 | 2.6 | 0.00 | 0.00 | 0.00 | 49 | 1008.1 |
| 20260504000829 | 48 | 299 | 1.7 | 2.6 | 0.00 | 0.02 | 0.00 | 49 | 1008.0 |
| 20260504000526 | 48 | 321 | 0.9 | 2.6 | 0.00 | 0.00 | 0.00 | 47 | 1008.2 |
| 20260504000035 | 49 | 321 | 0.9 | 2.6 | 0.00 | 0.00 | 0.00 | 46 | 1008.2 |
| 20260503235826 | 49 | 321 | 0.9 | 2.6 | 0.00 | 0.02 | 0.00 | 45 | 1008.2 |
| 20260503235521 | 49 | 341 | 1.7 | 3.5 | 0.00 | 0.00 | 0.00 | 42 | 1008.3 |
| 20260503235326 | 50 | 324 | 1.7 | 3.5 | 0.00 | 0.02 | 0.00 | 41 | 1008.0 |
| 20260503235022 | 49 | 314 | 0.9 | 5.2 | 0.00 | 0.00 | 0.00 | 45 | 1008.1 |
| 20260503234535 | 50 | 305 | 1.7 | 5.2 | 0.00 | 0.00 | 0.00 | 40 | 1008.2 |
| 20260503234323 | 51 | 305 | 2.6 | 4.3 | 0.00 | 0.02 | 0.00 | 43 | 1008.0 |
| 20260503234023 | 51 | 287 | 1.7 | 5.2 | 0.00 | 0.00 | 0.00 | 40 | 1008.0 |
| 20260503233824 | 51 | 311 | 0.9 | 2.6 | 0.00 | 0.02 | 0.00 | 44 | 1007.9 |
| 20260503233522 | 51 | 346 | 0.9 | 6.1 | 0.00 | 0.00 | 0.00 | 39 | 1008.1 |
| 20260503233323 | 52 | 297 | 0.0 | 6.1 | 0.00 | 0.02 | 0.00 | 42 | 1007.8 |
| 20260503233037 | 52 | 297 | 0.0 | 6.1 | 0.00 | 0.00 | 0.00 | 38 | 1007.9 |
| 20260503232820 | 52 | 297 | 0.9 | 6.1 | 0.00 | 0.02 | 0.00 | 37 | 1007.7 |
| 20260503232523 | 52 | 297 | 2.6 | 6.1 | 0.00 | 0.00 | 0.00 | 37 | 1007.7 |
| 20260503232320 | 53 | 322 | 2.6 | 6.1 | 0.00 | 0.02 | 0.00 | 36 | 1007.6 |
| 20260503232022 | 53 | 307 | 1.7 | 6.1 | 0.00 | 0.00 | 0.00 | 36 | 1007.8 |
| 20260503231819 | 53 | 351 | 3.5 | 6.1 | 0.00 | 0.02 | 0.00 | 36 | 1007.6 |
| 20260503231536 | 53 | 202 | 2.6 | 8.7 | 0.00 | 0.00 | 0.00 | 37 | 1007.7 |
| 20260503231318 | 53 | 273 | 1.7 | 8.7 | 0.00 | 0.02 | 0.00 | 35 | 1007.6 |
| 20260503231022 | 53 | 278 | 1.7 | 11.3 | 0.00 | 0.00 | 0.00 | 35 | 1007.7 |
| 20260503230816 | 53 | 272 | 1.7 | 11.3 | 0.00 | 0.02 | 0.00 | 36 | 1007.6 |
| 20260503230604 | 53 | 302 | 5.2 | 11.3 | 0.00 | 0.00 | 0.00 | 34 | 1007.6 |
| 20260503230041 | 53 | 334 | 7.0 | 11.3 | 0.00 | 0.00 | 0.00 | 34 | 1007.6 |
| 20260503225814 | 54 | 344 | 6.1 | 11.3 | 0.00 | 0.02 | 0.00 | 34 | 1007.5 |
| 20260503225521 | 53 | 322 | 6.1 | 9.6 | 0.00 | 0.00 | 0.00 | 34 | 1007.5 |
| 20260503225312 | 54 | 288 | 7.0 | 9.6 | 0.00 | 0.02 | 0.00 | 35 | 1007.5 |
| 20260503225022 | 53 | 299 | 5.2 | 9.6 | 0.00 | 0.00 | 0.00 | 36 | 1007.8 |
| 20260503224813 | 54 | 280 | 4.3 | 8.7 | 0.00 | 0.02 | 0.00 | 36 | 1007.6 |
| 20260503224533 | 53 | 281 | 5.2 | 8.7 | 0.00 | 0.00 | 0.00 | 35 | 1007.7 |
| 20260503224312 | 54 | 275 | 5.2 | 7.8 | 0.00 | 0.02 | 0.00 | 36 | 1007.6 |
| 20260503224023 | 53 | 300 | 3.5 | 7.8 | 0.00 | 0.00 | 0.00 | 37 | 1007.7 |
| 20260503223813 | 53 | 323 | 3.5 | 7.8 | 0.00 | 0.02 | 0.00 | 37 | 1007.7 |
| 20260503223522 | 53 | 347 | 1.7 | 7.8 | 0.00 | 0.00 | 0.00 | 37 | 1007.8 |
| 20260503223313 | 53 | 316 | 3.5 | 7.8 | 0.00 | 0.02 | 0.00 | 36 | 1007.7 |
| 20260503223035 | 53 | 310 | 3.5 | 7.8 | 0.00 | 0.00 | 0.00 | 36 | 1007.8 |
| 20260503222522 | 53 | 316 | 3.5 | 7.8 | 0.00 | 0.00 | 0.00 | 37 | 1007.8 |
| 20260503222312 | 53 | 316 | 4.3 | 7.8 | 0.00 | 0.02 | 0.00 | 39 | 1007.7 |
| 20260503222022 | 53 | 328 | 2.6 | 5.2 | 0.00 | 0.00 | 0.00 | 38 | 1007.9 |
| 20260503221811 | 53 | 347 | 2.6 | 4.3 | 0.00 | 0.02 | 0.00 | 37 | 1007.8 |
| 20260503221542 | 53 | 201 | 0.0 | 8.7 | 0.00 | 0.00 | 0.00 | 37 | 1007.9 |
| 20260503221312 | 53 | 291 | 0.9 | 7.8 | 0.00 | 0.02 | 0.00 | 38 | 1007.9 |
| 20260503221022 | 53 | 312 | 2.6 | 10.4 | 0.00 | 0.00 | 0.00 | 38 | 1008.0 |
| 20260503220810 | 53 | 311 | 2.6 | 10.4 | 0.00 | 0.02 | 0.00 | 38 | 1007.8 |
| 20260503220524 | 53 | 282 | 6.1 | 12.2 | 0.00 | 0.00 | 0.00 | 36 | 1007.9 |
| 20260503220310 | 53 | 288 | 7.0 | 11.3 | 0.00 | 0.02 | 0.00 | 37 | 1007.9 |
| 20260503220039 | 53 | 275 | 7.0 | 12.2 | 0.00 | 0.00 | 0.00 | 36 | 1007.9 |
| 20260503215522 | 53 | 297 | 3.5 | 8.7 | 0.00 | 0.00 | 0.00 | 37 | 1007.8 |
| 20260503215310 | 54 | 238 | 4.3 | 12.2 | 0.00 | 0.02 | 0.00 | 37 | 1007.7 |
| 20260503215023 | 53 | 277 | 3.5 | 13.0 | 0.00 | 0.00 | 0.00 | 36 | 1007.7 |
| 20260503214812 | 54 | 279 | 3.5 | 12.2 | 0.00 | 0.02 | 0.00 | 37 | 1007.6 |
| 20260503214540 | 53 | 297 | 7.0 | 13.0 | 0.00 | 0.00 | 0.00 | 37 | 1007.7 |
| 20260503214306 | 54 | 331 | 7.0 | 10.4 | 0.00 | 0.02 | 0.00 | 37 | 1007.6 |
| 20260503214026 | 53 | 324 | 6.1 | 10.4 | 0.00 | 0.00 | 0.00 | 36 | 1007.7 |
| 20260503213522 | 53 | 302 | 1.7 | 9.6 | 0.00 | 0.00 | 0.00 | 37 | 1007.7 |
| 20260503213304 | 54 | 358 | 5.2 | 9.6 | 0.00 | 0.02 | 0.00 | 37 | 1007.4 |
| 20260503213042 | 53 | 296 | 3.5 | 8.7 | 0.00 | 0.00 | 0.00 | 36 | 1007.6 |
| 20260503212803 | 53 | 271 | 2.6 | 8.7 | 0.00 | 0.02 | 0.00 | 37 | 1007.6 |
| 20260503212525 | 53 | 342 | 2.6 | 11.3 | 0.00 | 0.00 | 0.00 | 35 | 1007.5 |
| 20260503212304 | 54 | 314 | 2.6 | 11.3 | 0.00 | 0.02 | 0.00 | 37 | 1007.5 |
| 20260503212022 | 53 | 275 | 3.5 | 13.9 | 0.00 | 0.00 | 0.00 | 37 | 1007.6 |
| 20260503211803 | 53 | 327 | 7.0 | 13.9 | 0.00 | 0.02 | 0.00 | 36 | 1007.5 |
| 20260503211535 | 53 | 341 | 7.0 | 13.9 | 0.00 | 0.00 | 0.00 | 36 | 1007.7 |
| 20260503211021 | 53 | 276 | 6.1 | 12.2 | 0.00 | 0.00 | 0.00 | 36 | 1007.6 |
| 20260503210802 | 53 | 310 | 5.2 | 12.2 | 0.00 | 0.02 | 0.00 | 37 | 1007.4 |
| 20260503210521 | 53 | 323 | 5.2 | 13.0 | 0.00 | 0.00 | 0.00 | 37 | 1007.5 |
| 20260503210303 | 54 | 324 | 6.1 | 13.0 | 0.00 | 0.02 | 0.00 | 37 | 1007.4 |
| 20260503210039 | 53 | 245 | 5.2 | 13.0 | 0.00 | 0.00 | 0.00 | 36 | 1007.5 |
| 20260503205804 | 53 | 279 | 9.6 | 13.0 | 0.00 | 0.02 | 0.00 | 37 | 1007.4 |
| 20260503205522 | 53 | 295 | 3.5 | 9.6 | 0.00 | 0.01 | 0.00 | 36 | 1007.4 |
| 20260503205304 | 54 | 347 | 3.5 | 7.8 | 0.00 | 0.02 | 0.00 | 37 | 1007.3 |
| 20260503205022 | 53 | 324 | 0.9 | 8.7 | 0.00 | 0.01 | 0.00 | 38 | 1007.6 |
| 20260503204541 | 53 | 297 | 3.5 | 8.7 | 0.00 | 0.01 | 0.00 | 37 | 1007.6 |
| 20260503204305 | 53 | 78 | 6.1 | 8.7 | 0.00 | 0.02 | 0.00 | 38 | 1007.4 |
| 20260503204021 | 53 | 317 | 4.3 | 8.7 | 0.00 | 0.01 | 0.00 | 36 | 1007.6 |
| 20260503203805 | 53 | 243 | 3.5 | 8.7 | 0.00 | 0.02 | 0.00 | 36 | 1007.5 |
| 20260503203526 | 53 | 282 | 3.5 | 10.4 | 0.00 | 0.01 | 0.00 | 36 | 1007.6 |
| 20260503203304 | 53 | 261 | 3.5 | 13.9 | 0.00 | 0.02 | 0.00 | 37 | 1007.5 |
| 20260503203041 | 53 | 269 | 6.1 | 16.5 | 0.00 | 0.01 | 0.00 | 35 | 1007.7 |
| 20260503202804 | 54 | 238 | 5.2 | 16.5 | 0.00 | 0.02 | 0.00 | 37 | 1007.6 |
| 20260503202523 | 53 | 249 | 9.6 | 16.5 | 0.00 | 0.01 | 0.00 | 36 | 1007.6 |
| 20260503202306 | 54 | 330 | 8.7 | 16.5 | 0.00 | 0.02 | 0.00 | 35 | 1007.6 |
| 20260503202022 | 53 | 324 | 6.1 | 11.3 | 0.00 | 0.01 | 0.00 | 36 | 1007.7 |
| 20260503201803 | 54 | 290 | 6.1 | 10.4 | 0.00 | 0.02 | 0.00 | 36 | 1007.7 |
| 20260503201538 | 53 | 262 | 5.2 | 12.2 | 0.00 | 0.01 | 0.00 | 36 | 1007.7 |
| 20260503201302 | 54 | 254 | 5.2 | 12.2 | 0.00 | 0.02 | 0.00 | 37 | 1007.7 |
| 20260503201022 | 54 | 282 | 5.2 | 12.2 | 0.00 | 0.01 | 0.00 | 37 | 1007.8 |
| 20260503200803 | 54 | 299 | 7.8 | 12.2 | 0.00 | 0.02 | 0.00 | 37 | 1007.7 |
| 20260503200522 | 53 | 287 | 5.2 | 11.3 | 0.00 | 0.01 | 0.00 | 40 | 1007.7 |
| 20260503200329 | 53 | 243 | 7.8 | 10.4 | 0.00 | 0.02 | 0.00 | 37 | 1007.7 |
| 20260503200036 | 52 | 257 | 6.1 | 10.4 | 0.00 | 0.01 | 0.00 | 38 | 1007.7 |
| 20260503195801 | 53 | 237 | 3.5 | 8.7 | 0.00 | 0.02 | 0.00 | 38 | 1007.8 |
| 20260503195522 | 52 | 270 | 5.2 | 11.3 | 0.00 | 0.02 | 0.00 | 38 | 1007.9 |
| 20260503195304 | 53 | 305 | 4.3 | 9.6 | 0.00 | 0.02 | 0.00 | 39 | 1007.8 |
| 20260503195022 | 52 | 252 | 5.2 | 11.3 | 0.00 | 0.02 | 0.00 | 39 | 1008.0 |
| 20260503194802 | 53 | 270 | 6.1 | 9.6 | 0.00 | 0.02 | 0.00 | 40 | 1008.0 |
| 20260503194540 | 52 | 315 | 1.7 | 6.1 | 0.00 | 0.02 | 0.00 | 40 | 1008.1 |
| 20260503194303 | 52 | 312 | 1.7 | 5.2 | 0.00 | 0.02 | 0.00 | 43 | 1008.0 |
| 20260503194023 | 51 | 280 | 1.7 | 7.0 | 0.00 | 0.02 | 0.00 | 40 | 1008.1 |
| 20260503193801 | 52 | 242 | 2.6 | 7.0 | 0.00 | 0.02 | 0.00 | 42 | 1008.0 |
| 20260503193523 | 51 | 11 | 3.5 | 7.0 | 0.00 | 0.02 | 0.00 | 40 | 1008.1 |
| 20260503193321 | 51 | 26 | 3.5 | 7.0 | 0.00 | 0.02 | 0.00 | 43 | 1008.0 |
| 20260503193043 | 51 | 330 | 3.5 | 7.0 | 0.00 | 0.02 | 0.00 | 42 | 1008.1 |
| 20260503192804 | 51 | 12 | 2.6 | 7.0 | 0.00 | 0.02 | 0.00 | 42 | 1008.1 |
| 20260503192521 | 51 | 4 | 3.5 | 8.7 | 0.00 | 0.02 | 0.00 | 42 | 1008.2 |
| 20260503192305 | 52 | 10 | 5.2 | 8.7 | 0.00 | 0.02 | 0.00 | 42 | 1008.1 |
| 20260503192021 | 51 | 358 | 2.6 | 9.6 | 0.00 | 0.02 | 0.00 | 41 | 1008.3 |
| 20260503191805 | 51 | 330 | 6.1 | 8.7 | 0.00 | 0.02 | 0.00 | 40 | 1008.2 |
| 20260503191603 | 51 | 312 | 5.2 | 9.6 | 0.00 | 0.02 | 0.00 | 41 | 1008.3 |
| 20260503191304 | 51 | 330 | 0.9 | 9.6 | 0.00 | 0.02 | 0.00 | 42 | 1008.3 |
| 20260503191021 | 51 | 287 | 3.5 | 12.2 | 0.00 | 0.02 | 0.00 | 41 | 1008.3 |
| 20260503190804 | 51 | 335 | 2.6 | 11.3 | 0.00 | 0.02 | 0.00 | 42 | 1008.3 |
| 20260503190525 | 51 | 282 | 5.2 | 12.2 | 0.00 | 0.02 | 0.00 | 43 | 1008.5 |
| 20260503190317 | 51 | 302 | 7.0 | 11.3 | 0.00 | 0.02 | 0.00 | 41 | 1008.3 |
| 20260503190039 | 51 | 297 | 6.1 | 10.4 | 0.00 | 0.02 | 0.00 | 41 | 1008.4 |
| 20260503185805 | 51 | 320 | 8.7 | 10.4 | 0.00 | 0.02 | 0.00 | 42 | 1008.4 |
| 20260503185525 | 51 | 314 | 5.2 | 16.5 | 0.00 | 0.02 | 0.00 | 42 | 1008.5 |
| 20260503185305 | 51 | 278 | 4.3 | 16.5 | 0.00 | 0.02 | 0.00 | 41 | 1008.4 |
| 20260503185021 | 51 | 266 | 6.1 | 16.5 | 0.00 | 0.02 | 0.00 | 42 | 1008.6 |
| 20260503184805 | 51 | 266 | 9.6 | 16.5 | 0.00 | 0.02 | 0.00 | 41 | 1008.4 |
| 20260503184537 | 51 | 266 | 7.8 | 13.0 | 0.00 | 0.02 | 0.00 | 40 | 1008.7 |
| 20260503184305 | 51 | 248 | 4.3 | 10.4 | 0.00 | 0.02 | 0.00 | 41 | 1008.4 |
| 20260503184022 | 51 | 275 | 5.2 | 11.3 | 0.00 | 0.02 | 0.00 | 39 | 1008.6 |
| 20260503183800 | 52 | 239 | 4.3 | 10.4 | 0.00 | 0.02 | 0.00 | 43 | 1008.5 |
| 20260503183525 | 51 | 322 | 3.5 | 13.0 | 0.00 | 0.02 | 0.00 | 42 | 1008.5 |
| 20260503183035 | 51 | 235 | 6.1 | 17.4 | 0.00 | 0.02 | 0.00 | 43 | 1008.6 |
| 20260503182758 | 51 | 287 | 7.8 | 16.5 | 0.00 | 0.02 | 0.00 | 41 | 1008.5 |
| 20260503182521 | 50 | 318 | 10.4 | 17.4 | 0.00 | 0.02 | 0.00 | 42 | 1008.8 |
| 20260503182300 | 51 | 335 | 5.2 | 16.5 | 0.00 | 0.02 | 0.00 | 42 | 1008.7 |
| 20260503182021 | 50 | 273 | 4.3 | 13.0 | 0.00 | 0.02 | 0.00 | 43 | 1008.9 |
| 20260503181801 | 51 | 339 | 7.8 | 13.0 | 0.00 | 0.02 | 0.00 | 45 | 1008.9 |
| 20260503181546 | 50 | 317 | 7.8 | 13.0 | 0.00 | 0.02 | 0.00 | 43 | 1008.9 |
| 20260503181256 | 51 | 321 | 4.3 | 11.3 | 0.00 | 0.02 | 0.00 | 46 | 1008.7 |
| 20260503181022 | 50 | 335 | 4.3 | 11.3 | 0.00 | 0.02 | 0.00 | 43 | 1009.0 |
| 20260503180756 | 51 | 276 | 7.8 | 11.3 | 0.00 | 0.02 | 0.00 | 45 | 1008.7 |
| 20260503180522 | 50 | 339 | 7.8 | 11.3 | 0.00 | 0.02 | 0.00 | 43 | 1008.8 |
| 20260503180258 | 51 | 330 | 5.2 | 10.4 | 0.00 | 0.02 | 0.00 | 43 | 1008.8 |
| 20260503180033 | 50 | 286 | 5.2 | 13.0 | 0.00 | 0.02 | 0.00 | 43 | 1008.9 |
| 20260503175521 | 50 | 258 | 5.2 | 13.0 | 0.00 | 0.02 | 0.00 | 44 | 1008.9 |
| 20260503175251 | 51 | 312 | 6.1 | 13.0 | 0.00 | 0.02 | 0.00 | 44 | 1008.8 |
| 20260503175021 | 50 | 307 | 5.2 | 13.0 | 0.00 | 0.02 | 0.00 | 47 | 1008.9 |
| 20260503174749 | 51 | 326 | 6.1 | 13.0 | 0.00 | 0.02 | 0.00 | 44 | 1008.8 |
| 20260503174544 | 50 | 292 | 8.7 | 13.0 | 0.00 | 0.02 | 0.00 | 45 | 1008.9 |
| 20260503174246 | 51 | 343 | 7.8 | 12.2 | 0.00 | 0.02 | 0.00 | 45 | 1008.8 |
| 20260503174022 | 50 | 291 | 5.2 | 12.2 | 0.00 | 0.02 | 0.00 | 45 | 1009.0 |
| 20260503173521 | 50 | 328 | 6.1 | 11.3 | 0.00 | 0.02 | 0.00 | 45 | 1009.1 |
| 20260503173245 | 50 | 320 | 4.3 | 9.6 | 0.00 | 0.02 | 0.00 | 46 | 1009.0 |
| 20260503173038 | 49 | 268 | 6.1 | 11.3 | 0.00 | 0.02 | 0.00 | 46 | 1009.1 |
| 20260503172742 | 50 | 330 | 7.8 | 10.4 | 0.00 | 0.02 | 0.00 | 46 | 1008.9 |
| 20260503172521 | 50 | 318 | 6.1 | 11.3 | 0.00 | 0.02 | 0.00 | 46 | 1009.1 |
| 20260503172243 | 50 | 255 | 6.1 | 10.4 | 0.00 | 0.02 | 0.00 | 44 | 1009.1 |
| 20260503172022 | 50 | 255 | 4.3 | 13.0 | 0.00 | 0.02 | 0.00 | 43 | 1009.1 |
| 20260503171741 | 50 | 275 | 3.5 | 11.3 | 0.00 | 0.02 | 0.00 | 44 | 1009.0 |
| 20260503171536 | 49 | 307 | 3.5 | 13.0 | 0.00 | 0.02 | 0.00 | 45 | 1009.1 |
| 20260503171240 | 50 | 270 | 7.8 | 11.3 | 0.00 | 0.02 | 0.00 | 43 | 1009.0 |
| 20260503171022 | 49 | 272 | 7.0 | 13.9 | 0.00 | 0.02 | 0.00 | 43 | 1009.1 |
| 20260503170524 | 49 | 8 | 7.8 | 13.9 | 0.00 | 0.02 | 0.00 | 44 | 1009.1 |
| 20260503170239 | 49 | 318 | 7.8 | 13.0 | 0.00 | 0.02 | 0.00 | 45 | 1009.0 |
| 20260503150735 | 49 | 322 | 7.0 | 10.4 | 0.00 | 0.02 | 0.00 | 46 | 1009.9 |
| 20260503150521 | 48 | 26 | 6.1 | 9.6 | 0.00 | 0.02 | 0.00 | 46 | 1009.9 |
| 20260503150231 | 49 | 280 | 3.5 | 9.6 | 0.00 | 0.02 | 0.00 | 47 | 1009.8 |
| 20260503140229 | 49 | 332 | 7.0 | 13.0 | 0.00 | 0.02 | 0.00 | 50 | 1010.0 |
| 20260503131230 | 44 | 45 | 4.3 | 10.4 | 0.00 | 0.02 | 0.00 | 79 | 1010.4 |
| 20260503131022 | 44 | 36 | 6.1 | 11.3 | 0.00 | 0.02 | 0.00 | 79 | 1010.6 |
| 20260503130727 | 44 | 58 | 7.8 | 10.4 | 0.00 | 0.02 | 0.00 | 78 | 1010.4 |
| 20260503130522 | 44 | 52 | 7.0 | 11.3 | 0.00 | 0.02 | 0.00 | 77 | 1010.5 |
| 20260503130227 | 44 | 31 | 3.5 | 10.4 | 0.00 | 0.02 | 0.00 | 78 | 1010.4 |
| 20260503120212 | 43 | 45 | 2.6 | 3.5 | 0.00 | 0.02 | 0.00 | 82 | 1010.5 |
| 20260503110706 | 42 | 291 | 1.7 | 1.7 | 0.00 | 0.03 | 0.00 | 89 | 1010.6 |
| 20260503110523 | 41 | 291 | 0.9 | 1.7 | 0.00 | 0.03 | 0.00 | 89 | 1010.7 |
| 20260503100146 | 40 | 291 | 0.9 | 1.7 | 0.00 | 0.03 | 0.00 | 88 | 1010.3 |